Date,TemperatureHighF,TemperatureAvgF,TemperatureLowF,DewpointHighF,DewpointAvgF,DewpointLowF,HumidityHigh,HumidityAvg,HumidityLow,PressureMaxIn,PressureMinIn,WindSpeedMaxMPH,WindSpeedAvgMPH,GustSpeedMaxMPH,PrecipitationSumIn
2013-2-1,37.9,27.5,18.0,17.0,14.5,11.0,81,60,38,30.31,30.18,6,1,9,0.14
2013-2-2,41.0,28.8,19.7,16.0,9.3,-3.0,79,48,21,30.39,30.28,3,0,5,0.05
2013-2-3,41.6,31.3,23.5,17.0,7.4,-4.0,68,39,15,30.36,29.93,5,1,9,0.01
2013-2-4,41.7,28.9,19.3,19.0,13.4,3.0,83,57,22,30.06,29.93,5,1,9,0.00
2013-2-5,48.6,32.6,22.5,15.0,10.8,6.0,72,43,21,30.09,29.96,3,0,8,0.00
2013-2-6,42.5,33.2,26.9,21.0,17.0,12.0,74,52,36,29.96,29.75,6,1,9,0.00
2013-2-7,38.9,28.7,21.1,23.0,18.9,7.0,87,69,27,30.14,29.89,3,0,8,0.00
2013-2-8,36.4,27.6,19.1,22.0,18.0,12.0,82,68,49,30.13,29.83,10,2,14,0.00
2013-2-9,34.6,22.0,14.1,22.0,12.3,1.0,89,70,26,29.82,29.48,8,2,15,0.00
2013-2-10,22.8,15.5,10.9,14.0,10.8,7.0,90,82,63,30.13,29.69,6,1,11,0.01
2013-2-11,23.4,16.1,8.3,14.0,10.2,5.0,89,78,56,30.16,30.05,5,1,10,0.00
2013-2-12,23.5,13.5,3.8,12.0,4.5,-2.0,89,70,34,30.32,30.08,6,0,8,0.01
2013-2-13,34.3,19.6,8.0,15.0,8.1,3.0,81,63,40,30.33,30.18,4,1,8,0.03
2013-2-14,36.0,22.4,13.1,15.0,10.8,7.0,89,63,38,30.27,30.09,3,0,5,0.01
2013-2-15,29.9,20.6,12.8,15.0,6.2,-4.0,90,58,26,30.48,30.27,4,1,10,0.00
2013-2-16,40.3,26.9,14.3,11.0,4.6,0.0,53,40,22,30.48,30.19,6,1,11,0.00
2013-2-17,43.2,32.0,22.1,8.0,0.9,-11.0,49,29,10,30.18,29.65,7,1,10,0.00
2013-2-18,31.4,24.6,18.4,10.0,4.2,-1.0,61,43,27,30.14,29.61,6,2,16,0.00
2013-2-19,41.2,27.8,16.4,20.0,1.9,-31.0,78,37,8,30.15,29.76,7,1,13,0.00
2013-2-20,30.8,22.9,16.6,24.0,19.0,14.0,93,85,61,29.74,29.46,6,1,11,0.12
2013-2-21,26.4,19.7,13.9,19.0,15.5,12.0,91,84,69,29.94,29.54,8,1,11,0.00
2013-2-22,28.7,18.7,11.8,17.0,14.4,9.0,90,83,56,30.03,29.89,6,1,9,0.02
2013-2-23,33.6,20.9,10.0,13.0,9.5,5.0,87,64,38,30.09,29.78,6,1,9,0.09
2013-2-24,29.0,19.2,13.1,18.0,12.1,4.0,90,75,39,29.91,29.63,6,1,8,0.03
2013-2-25,31.0,18.8,4.9,7.0,3.6,-2.0,82,54,24,30.13,29.90,4,1,9,0.06
2013-2-26,26.3,18.2,10.4,11.0,5.5,2.0,88,59,40,30.14,29.77,7,2,17,0.00
2013-2-27,29.4,16.3,4.6,8.0,1.7,-3.0,88,57,27,30.42,30.14,6,1,8,0.00
2013-2-28,34.0,19.9,6.6,8.0,1.0,-4.0,64,46,24,30.45,30.34,5,1,10,0.00